Find Starlink 36476

NORAD ID: 67314 Int'l Des: 2026-002 Owner: SPXS Country: US Constellation: starlink operational
LEOCIRCULAR

Live-Position

3D-Globus wird geladen...

Über Starlink 36476

Beschreibung wird geladen...

Nächste Überflüge

Passes for default location (London). Set your location on the main map for personalized predictions.

Höhenverlauf

Loading altitude history...

Zweizeiliger Elementsatz

1 67314U 26002K 26107.04064139 .00010276 00000-0 38232-3 0 9991
2 67314 42.9999 108.7233 0001102 277.5421 82.5306 15.27587267 16934
Epoch: 17. Apr. 2026 • Age: 15 hours

Aktueller Status

Höhe 485.5 km
Geschwindigkeit 7.63 km/s
Subsatellitenpunkt 36.62°N, 152.78°E
Startdatum 4. Jan. 2026
Alter 0.2 years
Typ internet

Technische Details

Klassifizierung Payload
Masse 575.00 kg
Trockenmasse 530.00 kg
Gesamtmasse 575.00 kg
Länge 0.30 m
Durchmesser 4.10 m
Spannweite 29.00 m
Form Box + pan
Hersteller SPXS
Bus-Typ Starlink V2MO
Phasenstatus In Orbit
Besitzer/Staat SPXS/US

Most Searched